Voyager — C6WC2 — position and weather

sailwx.info

Track history (hours):
 
Tides and Currents Weather Stations Pressure Air Temp Water Temp Dewpoint Dewpoint Depression Visibility Wind Speed Wind Dir Waves Ship Positions

Voyager

Last reported at 2014-Oct-17 05:24 UTC. Time now 2014-Oct-20 21:18 UTC.
Position N 44°02' E 034°23'.

Length 151 m; draft 6 m.

Type: Passenger vessel. MMSI: 309695000.

Date/timePositionNaut miles runAvg speedWind from/ knotsBaromVisibWave heightAir tempDewpointWater temp
2014-Oct-17 05:24N 44°02' E 034°23'910.9
2014-Oct-17 04:34N 44°01' E 034°35'1110.8
2014-Oct-17 03:34N 44°00' E 034°50'12210.7
2014-Oct-16 16:10N 44°30' E 037°35'710.9
2014-Oct-16 15:33N 44°34' E 037°43'9 8.9
2014-Oct-16 14:34N 44°42' E 037°49'2 2.1
2014-Oct-16 13:33N 44°43' E 037°47'0 0.0
2014-Oct-16 12:33N 44°43' E 037°47'0 0.0
2014-Oct-16 11:33N 44°43' E 037°47'0 0.0
2014-Oct-16 10:33N 44°43' E 037°47'0 0.0
2014-Oct-16 09:33N 44°43' E 037°47'0 0.0
2014-Oct-16 08:33N 44°43' E 037°47'0 0.0
2014-Oct-16 07:33N 44°43' E 037°47'0 0.0
2014-Oct-16 06:33N 44°43' E 037°47'0 0.0
2014-Oct-16 05:33N 44°43' E 037°47'0 0.0
2014-Oct-16 04:33N 44°43' E 037°47'0 0.0
2014-Oct-16 03:34N 44°43' E 037°47'6 6.2
2014-Oct-16 02:34N 44°38' E 037°52'1010.1
2014-Oct-16 01:33N 44°28' E 037°52'10 9.2
2014-Oct-16 00:29N 44°18' E 037°55'  
2014-Oct-10 20:34N 41°24' E 029°38'1515.2
2014-Oct-10 19:34N 41°19' E 029°19'2411.4
2014-Oct-10 17:27N 40°59' E 028°60'1213.0
2014-Oct-10 16:32N 40°51' E 028°49'15413.5
2014-Oct-10 05:06N 39°46' E 025°46'10313.7
2014-Oct-09 21:33N 38°13' E 024°48'2612.4
2014-Oct-09 19:26N 37°51' E 024°30'1814.1
2014-Oct-09 18:09N 37°38' E 024°13'813.1
2014-Oct-09 17:33N 37°35' E 024°04'1413.3
2014-Oct-09 16:32N 37°36' E 023°47'1313.7
2014-Oct-09 15:33N 37°48' E 023°38'9 7.8
2014-Oct-09 14:27N 37°56' E 023°38'0 0.0
2014-Oct-09 13:33N 37°56' E 023°38'0 0.0
2014-Oct-09 12:33N 37°56' E 023°38'0 0.0
2014-Oct-09 11:33N 37°56' E 023°38'0 0.0
2014-Oct-09 10:33N 37°56' E 023°38'0 0.0
2014-Oct-09 09:33N 37°56' E 023°38'0 0.0
2014-Oct-09 08:33N 37°56' E 023°38'0 0.0
2014-Oct-09 07:33N 37°56' E 023°38'0 0.0
2014-Oct-09 06:33N 37°56' E 023°38'0 0.0
2014-Oct-09 05:33N 37°56' E 023°38'0 0.0
2014-Oct-09 04:33N 37°56' E 023°38'0 0.0
2014-Oct-09 03:33N 37°56' E 023°38'0 0.0
2014-Oct-09 02:33N 37°56' E 023°38'0 0.0
2014-Oct-09 01:33N 37°56' E 023°38'0 0.0
2014-Oct-09 00:33N 37°56' E 023°38'0 0.0
2014-Oct-08 23:33N 37°56' E 023°38'0 0.0
2014-Oct-08 22:33N 37°56' E 023°38'0 0.0
2014-Oct-08 21:33N 37°56' E 023°38'0 0.0
2014-Oct-08 20:33N 37°56' E 023°38'0 0.0
2014-Oct-08 19:33N 37°56' E 023°38'0 0.0
2014-Oct-08 18:33N 37°56' E 023°38'0 0.0
2014-Oct-08 17:33N 37°56' E 023°38'0 0.0
2014-Oct-08 16:33N 37°56' E 023°38'0 0.0
2014-Oct-08 15:33N 37°56' E 023°38'0 0.0
2014-Oct-08 14:33N 37°56' E 023°38'0 0.0
2014-Oct-08 13:33N 37°56' E 023°38'0 0.0
2014-Oct-08 12:33N 37°56' E 023°38'0 0.0
2014-Oct-08 11:33N 37°56' E 023°38'0 0.0
2014-Oct-08 10:33N 37°56' E 023°38'0 0.0
2014-Oct-08 09:33N 37°56' E 023°38'0 0.0
2014-Oct-08 08:33N 37°56' E 023°38'0 0.0
2014-Oct-08 07:33N 37°56' E 023°38'0 0.0
2014-Oct-08 06:33N 37°56' E 023°38'0 0.0
2014-Oct-08 05:33N 37°56' E 023°38'0 0.0
2014-Oct-08 04:33N 37°56' E 023°38'0 0.0
2014-Oct-08 03:33N 37°56' E 023°38'0 0.0
2014-Oct-08 02:33N 37°56' E 023°38'0 0.0
2014-Oct-08 01:33N 37°56' E 023°38'0 0.0
2014-Oct-08 00:33N 37°56' E 023°38'0 0.0
2014-Oct-07 23:33N 37°56' E 023°38'0 0.0
2014-Oct-07 22:33N 37°56' E 023°38'0 0.0
2014-Oct-07 21:33N 37°56' E 023°38'0 0.0
2014-Oct-07 20:33N 37°56' E 023°38'0 0.0
2014-Oct-07 19:33N 37°56' E 023°38'0 0.0
2014-Oct-07 18:31N 37°56' E 023°38'0 0.0
2014-Oct-07 17:27N 37°56' E 023°38'0 0.0
2014-Oct-07 16:33N 37°56' E 023°38'0 0.0
2014-Oct-07 15:33N 37°56' E 023°38'0 0.0
2014-Oct-07 14:33N 37°56' E 023°38'0 0.0
2014-Oct-07 13:33N 37°56' E 023°38'0 0.0
2014-Oct-07 12:33N 37°56' E 023°38'0 0.0
2014-Oct-07 11:33N 37°56' E 023°38'0 0.0
2014-Oct-07 10:33N 37°56' E 023°38'0 0.0
2014-Oct-07 09:33N 37°56' E 023°38'0 0.0
2014-Oct-07 08:33N 37°56' E 023°38'0 0.0
2014-Oct-07 07:33N 37°56' E 023°38'0 0.0
2014-Oct-07 06:33N 37°56' E 023°38'0 0.0
2014-Oct-07 05:33N 37°56' E 023°38'  
Track history (hours):
 
Tides and Currents Weather Stations Pressure Air Temp Water Temp Dewpoint Dewpoint Depression Visibility Wind Speed Wind Dir Waves Ship Positions

Voyager

Last reported at 2014-Oct-17 05:24 UTC. Time now 2014-Oct-20 21:18 UTC.
Position N 44°02' E 034°23'.

Length 151 m; draft 6 m.

Type: Passenger vessel. MMSI: 309695000.

Date/timePositionNaut miles runAvg speedWind from/ knotsBaromVisibWave heightAir tempDewpointWater temp
2014-Oct-17 05:24N 44°02' E 034°23'910.9
2014-Oct-17 04:34N 44°01' E 034°35'1110.8
2014-Oct-17 03:34N 44°00' E 034°50'12210.7
2014-Oct-16 16:10N 44°30' E 037°35'710.9
2014-Oct-16 15:33N 44°34' E 037°43'9 8.9
2014-Oct-16 14:34N 44°42' E 037°49'2 2.1
2014-Oct-16 13:33N 44°43' E 037°47'0 0.0
2014-Oct-16 12:33N 44°43' E 037°47'0 0.0
2014-Oct-16 11:33N 44°43' E 037°47'0 0.0
2014-Oct-16 10:33N 44°43' E 037°47'0 0.0
2014-Oct-16 09:33N 44°43' E 037°47'0 0.0
2014-Oct-16 08:33N 44°43' E 037°47'0 0.0
2014-Oct-16 07:33N 44°43' E 037°47'0 0.0
2014-Oct-16 06:33N 44°43' E 037°47'0 0.0
2014-Oct-16 05:33N 44°43' E 037°47'0 0.0
2014-Oct-16 04:33N 44°43' E 037°47'0 0.0
2014-Oct-16 03:34N 44°43' E 037°47'6 6.2
2014-Oct-16 02:34N 44°38' E 037°52'1010.1
2014-Oct-16 01:33N 44°28' E 037°52'10 9.2
2014-Oct-16 00:29N 44°18' E 037°55'  
2014-Oct-10 20:34N 41°24' E 029°38'1515.2
2014-Oct-10 19:34N 41°19' E 029°19'2411.4
2014-Oct-10 17:27N 40°59' E 028°60'1213.0
2014-Oct-10 16:32N 40°51' E 028°49'15413.5
2014-Oct-10 05:06N 39°46' E 025°46'10313.7
2014-Oct-09 21:33N 38°13' E 024°48'2612.4
2014-Oct-09 19:26N 37°51' E 024°30'1814.1
2014-Oct-09 18:09N 37°38' E 024°13'813.1
2014-Oct-09 17:33N 37°35' E 024°04'1413.3
2014-Oct-09 16:32N 37°36' E 023°47'1313.7
2014-Oct-09 15:33N 37°48' E 023°38'9 7.8
2014-Oct-09 14:27N 37°56' E 023°38'0 0.0
2014-Oct-09 13:33N 37°56' E 023°38'0 0.0
2014-Oct-09 12:33N 37°56' E 023°38'0 0.0
2014-Oct-09 11:33N 37°56' E 023°38'0 0.0
2014-Oct-09 10:33N 37°56' E 023°38'0 0.0
2014-Oct-09 09:33N 37°56' E 023°38'0 0.0
2014-Oct-09 08:33N 37°56' E 023°38'0 0.0
2014-Oct-09 07:33N 37°56' E 023°38'0 0.0
2014-Oct-09 06:33N 37°56' E 023°38'0 0.0
2014-Oct-09 05:33N 37°56' E 023°38'0 0.0
2014-Oct-09 04:33N 37°56' E 023°38'0 0.0
2014-Oct-09 03:33N 37°56' E 023°38'0 0.0
2014-Oct-09 02:33N 37°56' E 023°38'0 0.0
2014-Oct-09 01:33N 37°56' E 023°38'0 0.0
2014-Oct-09 00:33N 37°56' E 023°38'0 0.0
2014-Oct-08 23:33N 37°56' E 023°38'0 0.0
2014-Oct-08 22:33N 37°56' E 023°38'0 0.0
2014-Oct-08 21:33N 37°56' E 023°38'0 0.0
2014-Oct-08 20:33N 37°56' E 023°38'0 0.0
2014-Oct-08 19:33N 37°56' E 023°38'0 0.0
2014-Oct-08 18:33N 37°56' E 023°38'0 0.0
2014-Oct-08 17:33N 37°56' E 023°38'0 0.0
2014-Oct-08 16:33N 37°56' E 023°38'0 0.0
2014-Oct-08 15:33N 37°56' E 023°38'0 0.0
2014-Oct-08 14:33N 37°56' E 023°38'0 0.0
2014-Oct-08 13:33N 37°56' E 023°38'0 0.0
2014-Oct-08 12:33N 37°56' E 023°38'0 0.0
2014-Oct-08 11:33N 37°56' E 023°38'0 0.0
2014-Oct-08 10:33N 37°56' E 023°38'0 0.0
2014-Oct-08 09:33N 37°56' E 023°38'0 0.0
2014-Oct-08 08:33N 37°56' E 023°38'0 0.0
2014-Oct-08 07:33N 37°56' E 023°38'0 0.0
2014-Oct-08 06:33N 37°56' E 023°38'0 0.0
2014-Oct-08 05:33N 37°56' E 023°38'0 0.0
2014-Oct-08 04:33N 37°56' E 023°38'0 0.0
2014-Oct-08 03:33N 37°56' E 023°38'0 0.0
2014-Oct-08 02:33N 37°56' E 023°38'0 0.0
2014-Oct-08 01:33N 37°56' E 023°38'0 0.0
2014-Oct-08 00:33N 37°56' E 023°38'0 0.0
2014-Oct-07 23:33N 37°56' E 023°38'0 0.0
2014-Oct-07 22:33N 37°56' E 023°38'0 0.0
2014-Oct-07 21:33N 37°56' E 023°38'0 0.0
2014-Oct-07 20:33N 37°56' E 023°38'0 0.0
2014-Oct-07 19:33N 37°56' E 023°38'0 0.0
2014-Oct-07 18:31N 37°56' E 023°38'0 0.0
2014-Oct-07 17:27N 37°56' E 023°38'0 0.0
2014-Oct-07 16:33N 37°56' E 023°38'0 0.0
2014-Oct-07 15:33N 37°56' E 023°38'0 0.0
2014-Oct-07 14:33N 37°56' E 023°38'0 0.0
2014-Oct-07 13:33N 37°56' E 023°38'0 0.0
2014-Oct-07 12:33N 37°56' E 023°38'0 0.0
2014-Oct-07 11:33N 37°56' E 023°38'0 0.0
2014-Oct-07 10:33N 37°56' E 023°38'0 0.0
2014-Oct-07 09:33N 37°56' E 023°38'0 0.0
2014-Oct-07 08:33N 37°56' E 023°38'0 0.0
2014-Oct-07 07:33N 37°56' E 023°38'0 0.0
2014-Oct-07 06:33N 37°56' E 023°38'0 0.0
2014-Oct-07 05:33N 37°56' E 023°38'  

Dump ship's entire track history